Temperature
14 15 15 15 12 10 12 13 13 13 13 13 14 14 13 13 13 13 13 13 13 13 13 13 13 13 13 13 13 13 13 13 13 13 13 13 13 13 13 13 13 13 14 14 14 14 14 14 14
14 14 15 14 11 11 12 12 12 13 13 13 13 13 12 12 12 13 13 13 13 13 13 13 13 13 12 13 13 13 13 13 13 13 13 13 13 13 13 13 13 13 13 13 13 14 14 14 14
14 14 14 10 10 11 13 12 12 12 13 13 12 12 12 11 12 12 12 12 12 12 12 12 12 12 12 12 12 12 12 12 12 13 13 13 13 13 13 13 13 13 13 13 13 13 13 13 13
14 14 13 10 11 11 12 12 11 11 12 12 12 11 11 11 11 12 12 12 12 12 12 12 12 12 12 12 12 12 12 12 12 12 12 12 12 12 13 12 13 13 13 13 13 13 13 13 13
13 13 10 10 11 11 11 11 12 11 11 11 11 10 10 11 11 11 12 12 12 12 12 12 12 12 12 12 12 12 12 12 12 12 12 12 12 12 12 12 12 12 12 12 12 13 13 13 13
13 10 10 10 11 11 10 11 11 11 10 10 10 10 10 11 11 11 11 11 11 11 11 11 11 11 11 12 12 12 12 12 12 12 12 12 12 12 12 12 12 12 12 12 12 12 13 13 13
11 9 9 10 10 11 11 11 11 10 9 10 11 9 9 10 10 11 11 11 11 11 11 11 11 11 11 11 11 12 12 12 12 12 12 12 12 12 12 12 12 12 12 12 12 12 12 12 12
12 8 9 9 10 10 10 10 10 10 9 10 10 9 9 10 10 10 10 10 10 10 10 11 11 11 11 11 11 11 11 11 12 12 12 12 12 11 11 11 11 12 12 12 12 12 12 12 12
11 8 8 9 9 10 9 9 9 10 9 9 9 9 9 10 10 9 10 10 10 10 10 10 10 11 11 11 11 11 11 11 11 11 11 11 11 11 11 11 11 11 11 11 11 12 12 12 12
10 8 9 9 9 9 9 9 9 9 8 8 8 9 9 9 9 9 9 9 9 9 10 10 10 10 10 10 11 11 11 11 11 11 11 11 11 11 11 11 11 11 11 11 11 11 11 11 11
8 8 8 9 10 9 9 8 8 8 7 7 8 9 9 9 9 9 9 9 9 9 9 9 10 10 10 10 10 10 10 10 11 11 11 11 11 11 11 11 11 11 11 11 11 11 11 11 11
7 7 8 9 9 9 8 8 7 7 8 9 9 9 9 8 8 8 8 8 8 8 9 9 9 9 9 10 10 10 10 10 10 10 10 10 10 10 10 10 10 10 10 10 10 10 10 10 10
7 7 8 8 8 8 8 7 7 7 8 8 8 8 8 8 8 8 8 8 8 8 8 8 9 9 9 9 9 9 10 10 10 10 10 10 10 10 10 10 10 10 10 10 10 10 10 10 10
7 7 7 8 8 7 7 6 6 7 7 8 8 8 7 7 7 7 7 7 7 8 8 8 8 8 8 9 9 9 9 9 9 9 9 9 9 10 9 9 9 9 10 10 10 10 9 9 9
7 7 7 7 7 7 7 6 5 6 7 7 7 7 7 7 7 7 7 7 7 7 7 7 8 8 8 8 8 8 8 8 9 9 9 9 9 9 9 9 9 9 9 9 9 9 9 9 9
7 6 6 6 6 6 7 6 5 6 6 5 5 6 6 6 6 6 7 7 7 7 7 7 7 7 8 8 8 8 8 8 8 8 8 8 8 9 9 9 9 9 9 9 8 8 8 8 8
5 5 6 6 5 5 5 5 5 5 5 4 4 5 5 5 6 6 6 6 6 7 7 7 7 7 7 7 7 7 7 7 8 8 8 8 8 8 8 8 8 8 8 8 8 8 8 8 8
5 5 5 5 5 4 4 4 4 4 4 3 3 4 4 4 5 5 6 6 6 6 6 6 6 6 7 7 7 7 7 7 7 7 7 7 7 7 7 7 8 8 8 8 8 8 7 7 7
5 5 5 5 5 4 4 4 4 3 3 2 2 3 3 4 5 5 5 5 6 6 6 6 6 6 6 6 6 6 6 6 6 7 7 7 7 7 7 7 7 7 7 7 7 7 7 7 7
5 4 4 5 4 4 3 3 3 3 2 2 2 2 3 4 4 5 5 5 5 5 5 5 5 5 5 6 6 6 6 6 6 6 6 6 6 6 6 6 6 6 7 7 7 7 7 6 6
4 4 4 4 4 3 3 4 3 3 2 2 2 2 3 3 3 4 4 5 5 5 5 5 5 5 5 5 5 5 5 5 5 6 6 6 6 6 6 6 6 6 6 6 6 6 6 6 6
4 4 4 4 3 3 3 3 3 2 2 1 1 2 2 3 3 3 4 4 4 4 4 4 4 4 5 5 5 5 5 5 5 5 5 5 5 5 5 5 6 6 5 6 6 6 6 6 6
4 4 3 3 3 2 2 2 3 2 2 2 1 2 2 2 3 3 3 4 4 4 4 4 4 4 4 4 4 4 4 4 4 4 4 5 5 5 5 5 5 5 5 5 5 5 5 5 5
3 3 3 2 2 2 2 2 2 1 2 2 1 2 2 2 2 2 3 3 3 3 3 3 3 4 3 3 4 4 4 4 4 4 4 4 4 4 4 4 5 5 5 5 5 5 5 5 5
3 2 2 2 2 2 1 2 2 1 1 1 1 1 2 2 2 2 2 3 2 3 3 3 3 3 3 3 3 3 3 3 3 3 3 3 4 4 4 4 4 4 4 4 4 4 4 4 4
2 2 2 3 2 1 1 1 2 1 1 1 1 1 1 1 1 1 2 2 2 2 2 2 2 2 2 3 3 3 3 3 3 3 3 3 3 3 3 3 4 4 4 4 4 4 4 4 4
2 1 1 1 0 0 1 0 0 0 -0 -0 0 0 0 0 1 1 1 1 1 2 2 2 2 2 2 2 2 2 2 2 2 2 2 3 3 3 3 3 3 3 3 3 3 3 3 3 3
1 1 0 1 1 1 1 -0 1 1 0 -1 -1 -1 -0 0 0 0 0 0 1 1 1 1 1 2 2 2 2 2 2 2 2 2 2 2 2 2 2 2 2 2 2 2 3 3 3 3 3
0 0 -0 -1 -0 0 0 1 0 0 -0 -1 -2 -1 -0 -0 -0 -0 -0 -0 0 0 1 1 1 1 1 1 1 1 1 1 1 1 1 2 2 2 2 2 2 2 2 2 2 2 2 2 2
-0 -1 -1 -0 -1 -2 -1 0 -0 -1 -2 -2 -2 -1 -1 -1 -1 -1 -1 -1 -1 -0 0 0 0 0 1 1 1 1 1 1 1 1 1 1 1 1 1 1 1 1 1 1 1 1 1 1 1
Wind_Speed
5 3 3 4 5 3 5 5 3 2 2 0 1 3 5 5 4 2 1 1 3 4 5 7 9 9 10 10 10 10 10 10 10 10 10 10 10 11 11 11 11 11 12 12 13 13 14 15 16
2 2 4 4 4 3 6 5 4 4 3 2 3 3 3 1 1 1 1 0 3 5 6 7 9 10 10 10 10 10 10 10 10 9 10 10 10 11 11 11 11 11 12 12 13 14 14 15 16
2 4 4 4 4 8 6 3 5 2 2 2 2 2 1 1 0 1 2 2 4 5 5 7 10 10 10 10 9 9 10 10 10 10 9 9 10 11 11 11 11 11 12 13 13 14 14 15 15
3 4 4 3 7 8 4 2 2 2 1 2 3 2 0 2 0 1 1 3 5 4 5 7 10 10 10 10 9 9 9 9 9 9 10 9 10 10 11 11 11 11 12 12 13 14 14 14 15
4 4 2 3 8 6 3 2 2 2 2 1 3 3 1 2 3 3 3 4 5 4 5 6 9 10 10 10 9 9 9 9 8 9 9 9 10 10 11 11 11 12 12 12 12 13 14 14 14
4 3 3 7 8 5 3 1 2 1 1 1 3 3 1 2 4 3 3 4 5 5 5 5 7 9 10 9 9 9 9 9 9 9 9 10 10 10 11 11 11 12 12 12 12 13 13 14 14
4 4 6 6 5 4 3 1 3 3 2 2 3 3 1 2 2 2 4 4 5 6 6 6 6 7 8 9 9 8 9 9 10 10 10 10 10 10 11 11 11 12 12 12 12 13 13 13 14
4 4 4 5 6 5 1 2 1 3 2 1 3 4 3 2 2 4 5 5 5 5 5 6 6 7 7 7 8 8 9 10 10 10 10 9 10 10 11 11 12 12 12 13 13 13 14 14 15
4 2 6 7 6 3 1 2 1 2 4 2 1 0 1 3 4 5 4 4 3 3 3 5 5 6 7 7 8 9 9 10 10 10 10 10 10 11 10 11 12 13 13 13 13 14 14 14 15
4 5 8 5 4 3 2 2 2 2 1 0 1 3 3 5 5 5 3 3 1 1 1 3 4 4 5 6 7 8 8 9 10 10 10 10 10 10 11 11 12 13 13 13 14 14 14 13 13
3 6 4 2 2 3 3 2 2 4 2 4 3 2 3 4 4 4 4 3 2 1 0 1 2 4 4 5 6 6 7 8 9 10 10 10 10 10 10 10 10 12 12 12 13 13 12 12 12
3 2 2 2 1 2 2 2 2 3 5 3 4 5 6 6 6 5 4 3 2 1 1 1 2 3 4 4 5 5 6 6 6 7 9 9 8 8 8 8 9 9 10 11 11 11 12 13 13
3 3 1 1 2 1 2 2 3 4 3 1 3 5 6 6 6 4 3 2 1 1 1 0 1 2 3 4 4 5 5 5 6 7 7 8 7 6 7 7 8 9 10 10 10 10 11 11 11
3 2 2 2 1 1 2 3 2 5 1 2 4 5 5 6 5 3 3 3 3 2 2 0 1 2 3 3 3 4 5 5 6 6 6 7 8 7 7 7 7 8 9 10 10 9 9 9 10
2 0 3 3 3 2 2 4 5 5 2 2 3 3 4 3 3 4 5 4 3 3 2 1 1 2 3 3 3 4 5 6 5 5 6 7 7 8 8 7 6 7 9 11 11 10 10 8 8
2 0 3 3 2 2 4 8 5 2 4 3 2 2 3 3 3 3 3 2 2 2 2 1 0 1 2 3 3 4 4 5 5 6 6 6 7 8 7 7 6 8 9 9 8 7 6 5 5
1 2 4 4 1 2 4 6 4 1 4 3 3 3 2 2 2 2 2 2 3 3 3 2 0 1 2 3 3 4 4 5 5 6 6 5 7 7 7 6 7 8 8 7 6 5 5 5 5
4 3 3 4 1 2 4 7 6 2 3 3 3 3 3 3 4 3 2 1 1 2 2 2 1 1 2 3 3 3 3 3 4 4 5 6 6 7 6 6 7 8 6 5 5 6 5 5 5
3 3 4 5 2 2 6 8 9 4 3 3 4 3 4 4 3 1 1 1 1 1 1 2 2 2 2 3 3 3 3 2 2 2 4 6 6 6 6 5 6 6 5 5 6 6 6 4 4
2 3 5 4 1 2 5 8 7 5 4 4 5 5 4 3 1 1 1 1 1 2 2 2 2 3 3 3 3 2 3 2 2 2 3 4 6 6 5 6 5 6 5 5 6 6 4 2 2
4 5 5 4 2 1 3 6 5 3 3 1 2 2 2 4 4 3 2 2 2 2 3 3 3 3 2 3 3 3 3 2 2 1 1 2 4 6 6 6 6 5 5 6 6 6 6 5 1
5 3 4 3 2 3 1 5 5 3 3 2 3 2 3 3 3 2 2 2 2 3 2 2 3 3 2 3 4 5 3 3 2 2 2 2 3 5 6 6 7 6 5 5 6 5 5 6 4
4 1 2 2 3 3 1 3 7 1 3 5 4 4 4 3 2 2 3 3 2 2 2 2 2 3 2 3 4 4 3 2 1 1 2 2 2 3 5 5 6 6 5 5 6 5 5 4 5
1 2 2 2 2 3 4 4 6 3 5 5 4 3 3 3 2 2 1 1 1 1 1 1 2 2 2 3 3 4 4 3 3 2 3 2 2 2 3 4 5 6 5 5 5 6 6 4 4
2 3 2 2 1 5 2 4 7 4 4 4 4 3 3 2 2 2 1 1 1 1 1 1 1 1 2 3 3 4 4 4 5 4 4 3 2 2 3 3 4 5 5 6 6 5 5 5 5
2 4 4 4 4 4 1 6 6 3 2 1 1 2 3 3 2 2 2 2 2 2 1 1 2 1 2 2 3 3 3 3 3 4 4 4 3 3 3 4 4 5 5 5 5 4 4 4 5
2 2 2 3 0 3 5 5 6 2 2 2 2 3 4 4 3 3 2 2 2 2 2 2 2 2 2 3 2 2 3 3 3 3 3 3 3 3 3 4 3 5 6 6 5 4 4 5 5
2 4 3 2 2 4 5 5 4 3 3 3 4 4 5 4 4 4 3 3 2 2 1 1 2 2 2 2 2 2 3 3 3 3 3 4 4 3 4 4 4 4 5 5 5 4 4 5 5
2 2 2 2 2 3 4 6 3 5 3 3 5 5 5 4 4 4 3 3 2 2 1 1 1 2 2 2 2 2 2 2 3 3 4 4 4 4 5 5 5 5 5 5 5 5 5 5 5
3 4 4 3 4 3 3 7 3 2 2 2 4 6 5 4 4 3 3 2 2 2 2 2 2 2 3 3 2 2 2 2 3 3 4 3 4 4 5 5 5 5 5 6 6 6 5 6 6
Wind_Direction
359 41 65 59 64 67 231 238 214 212 204 190 123 124 143 150 157 184 321 120 109 137 152 147 139 137 135 129 127 124 122 120 117 114 111 111 110 109 106 103 100 97 95 93 94 96 95 93 91
22 56 57 66 115 199 249 233 220 214 179 116 61 77 93 130 18 60 355 290 120 129 133 139 136 130 130 130 128 127 124 121 120 118 116 115 113 112 109 105 102 100 99 98 97 96 96 94 92
68 54 88 93 160 201 219 223 212 222 139 115 82 51 117 160 198 226 290 157 110 113 123 137 132 129 127 125 127 129 127 124 121 119 117 116 115 114 112 109 106 104 103 101 99 98 95 94 94
84 56 63 119 217 224 217 243 182 147 103 77 120 90 79 42 271 259 2 116 107 96 110 132 130 128 127 125 121 122 128 127 124 121 116 114 116 117 115 111 106 105 105 103 101 100 98 95 94
64 89 113 219 234 240 239 259 168 152 163 109 133 153 167 8 21 68 81 96 106 93 92 122 128 126 125 124 121 120 121 125 127 124 118 114 112 116 114 110 107 107 106 103 103 102 99 98 98
73 88 158 223 237 250 253 241 156 141 155 133 134 147 207 14 40 58 81 89 96 92 81 99 123 125 123 122 121 121 120 122 118 120 118 114 112 113 112 109 108 106 104 105 106 105 101 100 100
127 138 200 220 237 254 253 166 162 170 175 215 172 149 257 350 19 66 79 84 83 82 78 71 91 109 119 120 118 120 119 117 114 110 111 112 112 112 111 111 108 104 103 104 106 105 102 100 102
134 133 197 223 224 248 265 169 175 146 179 92 130 152 215 252 55 74 77 75 79 76 76 71 71 84 92 106 113 112 112 111 109 104 100 102 102 104 105 104 103 101 100 100 103 104 100 100 101
104 129 214 219 207 229 141 142 35 86 105 95 76 91 266 118 107 91 67 54 60 62 65 71 73 74 89 97 105 105 106 107 104 99 94 89 90 90 91 98 100 98 97 97 99 103 100 97 96
119 194 224 220 197 177 149 167 159 106 81 41 5 13 69 119 135 134 133 132 100 63 54 73 82 79 87 98 102 100 100 102 101 99 95 90 89 88 89 90 94 94 92 91 93 94 93 90 88
159 201 216 236 199 161 165 175 143 148 231 233 226 213 143 142 153 165 167 168 172 175 73 109 93 92 95 100 102 100 103 104 104 105 102 98 94 91 90 86 85 87 87 85 86 85 85 87 87
172 226 204 241 180 151 179 179 181 191 228 239 203 164 159 166 180 188 183 179 166 131 18 66 89 98 103 108 108 107 107 107 108 112 113 107 99 92 89 86 85 86 89 88 84 85 87 87 87
207 229 214 208 124 136 130 207 222 250 266 42 121 139 167 183 196 198 174 163 164 176 336 310 107 102 115 119 115 112 113 117 118 120 119 119 111 104 99 92 90 90 92 94 91 88 87 85 84
192 195 252 264 229 216 181 257 249 270 285 109 130 157 179 191 198 196 180 171 186 199 214 302 142 118 122 127 127 127 123 122 118 119 121 123 123 116 108 99 93 93 97 99 98 95 92 87 86
138 139 311 275 227 216 158 287 249 264 164 151 165 176 184 192 193 205 209 194 195 202 202 192 183 130 128 131 136 136 135 131 123 120 118 115 122 123 119 112 102 100 106 106 102 97 91 87 84
86 95 269 280 216 203 166 248 265 230 162 184 198 203 207 214 213 227 230 210 199 191 192 190 211 150 140 137 141 141 142 139 133 130 124 121 121 121 121 121 117 115 111 110 108 103 96 84 82
45 239 245 281 237 158 177 241 265 210 172 200 213 212 214 227 252 261 252 218 197 187 181 187 283 173 159 143 139 139 141 143 141 134 129 129 128 123 120 124 124 123 113 109 114 105 109 106 93
218 225 247 250 273 161 203 245 264 242 188 212 217 218 222 227 242 245 238 212 177 169 172 179 202 184 158 135 124 120 120 126 132 133 136 138 133 127 119 122 128 128 120 116 115 116 102 110 110
183 205 248 257 259 217 232 250 264 252 219 234 234 228 232 241 248 224 216 170 129 131 154 188 198 196 167 149 157 158 169 164 136 137 148 147 141 135 127 125 132 133 134 138 132 125 117 110 119
206 242 260 283 278 238 263 265 260 237 225 228 228 230 230 244 275 266 227 163 180 200 200 203 222 209 193 175 168 163 157 157 140 132 137 149 147 145 141 140 145 145 138 138 139 135 130 127 137
228 224 240 256 316 288 300 283 252 255 226 246 243 230 237 230 237 241 226 215 203 222 222 221 226 221 203 156 134 115 108 106 113 125 159 160 161 156 151 154 151 153 155 161 161 156 147 156 163
247 232 226 242 257 279 189 284 266 249 252 265 271 265 255 258 241 229 221 233 226 236 237 230 220 213 197 157 154 150 157 169 193 198 196 181 167 163 162 162 160 161 164 170 173 166 159 157 169
233 248 214 226 211 274 233 235 284 246 259 262 258 258 262 266 248 235 230 236 242 242 231 226 219 201 188 174 174 166 167 172 148 161 176 173 160 171 168 169 168 168 172 177 177 171 172 171 172
194 52 45 62 114 256 218 196 275 234 233 245 246 260 278 275 268 268 269 270 283 261 218 218 213 208 199 180 179 178 179 170 162 180 193 193 182 175 180 181 179 176 176 183 187 186 182 182 176
79 94 11 341 303 250 185 206 253 252 235 222 241 270 287 278 271 284 311 319 287 258 228 228 217 218 212 193 189 190 188 183 187 188 196 198 198 210 206 197 190 185 187 189 188 187 191 187 186
196 157 173 220 238 279 258 233 257 273 264 235 250 286 318 316 301 289 277 268 263 248 233 234 227 241 230 218 209 198 186 193 203 197 194 203 211 214 205 200 199 191 189 189 186 192 197 191 194
147 180 172 144 218 275 263 283 305 323 337 332 320 330 325 316 313 312 317 305 277 258 241 232 233 245 236 237 222 207 194 199 208 208 202 201 206 208 195 202 199 195 190 189 185 197 201 193 195
128 147 107 141 211 264 282 273 259 269 281 311 326 312 305 308 309 319 316 309 294 277 280 262 242 244 242 240 226 223 212 214 211 203 211 208 201 195 193 198 200 198 192 189 187 192 197 195 197
103 117 133 156 192 201 264 269 234 221 234 263 286 301 300 292 292 299 305 302 310 327 321 315 283 286 272 258 249 229 223 215 207 213 218 215 207 197 197 200 199 198 195 192 191 196 193 197 201
177 183 161 185 241 212 230 267 290 242 276 274 288 302 306 292 284 287 296 313 326 326 320 315 296 284 274 263 255 240 225 213 213 225 224 217 211 207 204 202 203 202 199 197 196 201 199 201 205
Height
1493 1495 1497 1499 1504 1513 1511 1506 1503 1503 1502 1502 1502 1503 1504 1508 1512 1516 1511 1510 1512 1514 1516 1518 1520 1522 1524 1525 1526 1528 1529 1530 1531 1532 1533 1534 1535 1536 1537 1537 1538 1539 1540 1541 1542 1542 1543 1544 1545
1493 1495 1498 1499 1508 1515 1510 1503 1502 1500 1500 1501 1501 1503 1504 1506 1508 1509 1508 1509 1512 1514 1516 1518 1520 1522 1523 1525 1526 1528 1529 1530 1531 1532 1533 1534 1535 1536 1537 1538 1539 1540 1541 1542 1542 1543 1544 1545 1546
1493 1495 1497 1501 1508 1509 1503 1499 1499 1499 1499 1500 1502 1503 1505 1506 1507 1508 1509 1510 1512 1514 1516 1518 1520 1521 1523 1525 1526 1528 1529 1530 1531 1532 1533 1534 1535 1537 1537 1538 1539 1540 1541 1542 1543 1544 1544 1545 1546
1493 1496 1497 1503 1503 1500 1498 1497 1497 1498 1499 1500 1501 1504 1505 1507 1507 1508 1509 1510 1512 1514 1516 1518 1520 1521 1523 1524 1526 1527 1529 1530 1531 1532 1533 1535 1536 1537 1538 1539 1540 1541 1542 1542 1543 1544 1545 1546 1547
1492 1494 1500 1504 1499 1497 1497 1496 1496 1497 1499 1500 1501 1503 1504 1506 1506 1508 1509 1510 1512 1514 1516 1518 1519 1521 1522 1524 1526 1527 1528 1530 1531 1532 1533 1535 1536 1537 1538 1539 1540 1541 1542 1543 1543 1544 1545 1546 1547
1492 1494 1503 1503 1497 1496 1496 1496 1496 1497 1499 1500 1501 1503 1504 1505 1506 1507 1509 1510 1512 1514 1515 1517 1519 1520 1522 1523 1525 1527 1528 1529 1531 1532 1533 1535 1536 1537 1538 1539 1540 1541 1542 1543 1543 1544 1545 1546 1547
1491 1496 1499 1498 1497 1496 1495 1495 1496 1497 1498 1500 1501 1502 1503 1504 1506 1507 1509 1510 1512 1513 1515 1517 1518 1520 1521 1523 1525 1526 1528 1529 1531 1532 1533 1534 1536 1537 1538 1539 1540 1541 1542 1542 1543 1544 1544 1546 1547
1489 1495 1497 1498 1497 1495 1494 1494 1495 1497 1498 1500 1501 1502 1502 1504 1505 1506 1508 1510 1511 1513 1514 1516 1517 1519 1520 1522 1524 1525 1527 1529 1530 1532 1533 1534 1535 1537 1538 1539 1540 1541 1541 1542 1543 1544 1545 1546 1548
1489 1497 1497 1495 1495 1494 1493 1494 1495 1497 1498 1499 1500 1501 1502 1503 1504 1505 1507 1508 1510 1512 1513 1514 1516 1517 1519 1521 1523 1524 1526 1528 1529 1531 1532 1534 1535 1536 1538 1539 1540 1541 1541 1542 1543 1544 1545 1547 1549
1488 1495 1492 1490 1491 1492 1493 1494 1495 1496 1497 1498 1498 1499 1500 1501 1502 1503 1505 1506 1508 1509 1511 1513 1515 1516 1518 1520 1522 1523 1525 1527 1529 1530 1532 1533 1535 1536 1537 1539 1540 1541 1542 1542 1543 1544 1546 1548 1549
1487 1489 1488 1489 1489 1490 1491 1493 1495 1495 1497 1496 1497 1497 1498 1499 1500 1502 1503 1505 1506 1508 1510 1511 1513 1515 1516 1518 1520 1522 1524 1526 1528 1529 1531 1533 1534 1535 1537 1538 1540 1541 1542 1543 1544 1545 1546 1548 1550
1487 1487 1488 1488 1488 1489 1491 1492 1494 1494 1494 1495 1495 1496 1496 1497 1498 1499 1501 1502 1505 1506 1508 1510 1511 1513 1515 1517 1519 1520 1522 1524 1526 1528 1530 1532 1533 1535 1536 1538 1539 1540 1542 1543 1545 1546 1547 1548 1550
1487 1487 1487 1488 1488 1489 1490 1491 1492 1492 1493 1493 1493 1494 1494 1495 1496 1498 1500 1502 1503 1504 1506 1508 1510 1511 1513 1515 1517 1519 1521 1523 1525 1527 1529 1531 1532 1533 1535 1537 1539 1540 1542 1543 1545 1546 1547 1548 1550
1485 1486 1487 1487 1487 1488 1490 1491 1492 1489 1491 1491 1491 1491 1493 1494 1495 1496 1497 1499 1500 1502 1504 1505 1507 1509 1511 1513 1515 1517 1519 1521 1523 1525 1527 1529 1530 1532 1534 1536 1538 1539 1541 1542 1544 1546 1547 1549 1550
1485 1487 1487 1487 1487 1488 1489 1491 1490 1488 1489 1489 1489 1490 1491 1492 1493 1493 1495 1496 1498 1500 1501 1503 1505 1507 1509 1511 1513 1515 1517 1519 1521 1523 1525 1527 1529 1531 1533 1535 1536 1538 1540 1542 1544 1545 1547 1549 1550
1485 1488 1489 1486 1486 1486 1491 1491 1487 1487 1486 1486 1487 1488 1489 1489 1490 1492 1493 1495 1496 1498 1499 1500 1502 1504 1506 1508 1510 1512 1515 1517 1519 1521 1523 1525 1527 1529 1531 1533 1535 1537 1539 1541 1542 1544 1546 1548 1549
1489 1491 1489 1487 1486 1486 1489 1489 1486 1485 1484 1484 1485 1486 1486 1487 1488 1489 1490 1492 1494 1495 1496 1498 1499 1501 1503 1505 1508 1510 1512 1514 1516 1519 1521 1523 1525 1527 1529 1531 1533 1535 1537 1539 1541 1543 1545 1546 1548
1490 1491 1489 1488 1486 1487 1489 1487 1484 1483 1483 1483 1483 1484 1484 1484 1485 1486 1487 1489 1491 1492 1494 1495 1497 1498 1500 1502 1505 1507 1509 1512 1514 1516 1518 1520 1522 1525 1527 1529 1531 1533 1535 1537 1539 1541 1543 1545 1547
1487 1489 1489 1487 1485 1487 1487 1484 1481 1481 1481 1480 1480 1481 1481 1481 1483 1484 1485 1486 1488 1489 1490 1492 1493 1494 1496 1497 1500 1502 1505 1508 1511 1513 1515 1518 1520 1522 1524 1526 1529 1530 1532 1535 1537 1539 1541 1543 1545
1487 1489 1489 1486 1485 1487 1486 1483 1479 1478 1478 1477 1477 1478 1478 1479 1480 1481 1483 1484 1485 1486 1487 1489 1490 1491 1492 1494 1496 1499 1502 1505 1508 1511 1512 1514 1517 1519 1522 1524 1526 1528 1530 1532 1534 1536 1538 1540 1542
1487 1489 1488 1488 1487 1486 1487 1481 1478 1476 1476 1476 1475 1476 1476 1477 1477 1478 1480 1480 1482 1482 1484 1485 1487 1488 1489 1491 1494 1496 1498 1501 1504 1506 1509 1511 1513 1516 1518 1521 1523 1525 1527 1529 1531 1533 1535 1537 1540
1486 1484 1485 1486 1489 1490 1489 1486 1476 1476 1475 1475 1474 1474 1474 1474 1475 1476 1476 1477 1478 1479 1481 1482 1483 1485 1486 1488 1490 1491 1493 1495 1499 1502 1505 1508 1510 1512 1515 1518 1520 1523 1524 1526 1528 1530 1532 1534 1536
1484 1483 1485 1486 1489 1492 1491 1491 1478 1477 1475 1473 1472 1472 1471 1472 1472 1472 1473 1474 1475 1477 1478 1479 1480 1482 1483 1484 1486 1488 1490 1493 1496 1499 1502 1504 1506 1509 1511 1514 1517 1519 1521 1523 1525 1527 1529 1531 1532
1483 1485 1486 1489 1490 1491 1488 1491 1479 1477 1472 1470 1470 1470 1470 1470 1470 1470 1471 1472 1473 1474 1475 1476 1477 1478 1480 1481 1483 1486 1487 1489 1492 1495 1497 1500 1502 1505 1507 1510 1513 1515 1517 1520 1521 1523 1525 1527 1529
1484 1488 1493 1492 1495 1488 1487 1487 1478 1471 1469 1468 1468 1468 1468 1468 1468 1468 1468 1469 1470 1471 1471 1473 1474 1475 1477 1478 1480 1482 1484 1486 1488 1490 1493 1495 1497 1500 1503 1505 1508 1511 1513 1515 1518 1519 1521 1523 1525
1486 1487 1492 1493 1492 1490 1489 1485 1474 1469 1468 1467 1468 1468 1467 1466 1466 1466 1466 1466 1467 1468 1468 1469 1470 1472 1474 1475 1476 1478 1481 1483 1485 1487 1489 1491 1493 1496 1499 1501 1504 1506 1509 1511 1513 1515 1517 1519 1520
1485 1488 1489 1495 1498 1497 1488 1483 1474 1469 1468 1467 1467 1466 1466 1466 1465 1464 1464 1465 1465 1465 1465 1466 1467 1469 1470 1471 1473 1475 1477 1479 1481 1483 1486 1488 1490 1492 1495 1497 1499 1502 1504 1506 1508 1510 1512 1513 1515
1485 1487 1492 1494 1493 1490 1487 1486 1476 1469 1468 1468 1467 1466 1465 1464 1464 1462 1462 1462 1462 1462 1463 1464 1465 1465 1467 1468 1470 1471 1473 1475 1477 1479 1481 1483 1486 1488 1491 1493 1495 1497 1499 1502 1503 1505 1507 1508 1510
1488 1489 1490 1494 1493 1493 1491 1480 1469 1467 1466 1467 1466 1465 1464 1463 1462 1461 1461 1461 1460 1459 1460 1460 1461 1462 1463 1465 1466 1468 1469 1471 1473 1475 1477 1479 1482 1484 1486 1488 1490 1493 1495 1496 1498 1500 1502 1503 1505
1487 1488 1491 1492 1493 1497 1495 1482 1466 1465 1465 1465 1465 1464 1463 1461 1460 1459 1458 1458 1457 1457 1457 1458 1458 1458 1459 1461 1462 1463 1465 1467 1469 1471 1473 1475 1477 1479 1481 1484 1486 1488 1490 1491 1493 1495 1496 1498 1500